158P/Kowal-LINEAR (2012)

Japanese version
Home page
Updated on November 3, 2011

---------------------------------------------------------------------

* Profile

* Pictures

* Orbital Elements

Epoch 2012 Sept. 30.0 TT = JDT 2456200.5
T 2012 Sept. 27.47491 TT                                MPC
q   4.5764207            (2000.0)            P               Q
n   0.09607373     Peri.  232.84887     +0.97920043     -0.18017751
a   4.7213508      Node   137.30450     +0.20024346     +0.93228989
e   0.0306968      Incl.    7.90735     -0.03269666     +0.31364252
P  10.3
From 311 observations 1979 July 24-2011 Sept. 5, mean residual 0".6.

* Magnitudes Graph

        m1 = 9.0 + 5 log d + 10.0 log r

---------------------------------------------------------------------

The orbital elements are published on M.P.E.C. 2011-R35.
The magnitudes graphs are made with Comet for Windows.

---------------------------------------------------------------------

Copyright(C) Seiichi Yoshida (comet@aerith.net). All rights reserved.